Weather reports worldwide

Advertisment
Coleshill, United Kingdom (3535): temperature & dewpoint: 17.03.2017 14:00:00 - 23.03.2017 14:00:00 (GMT)Coleshill, United Kingdom (3535): temperature -20cm & temperature -100cm: 17.03.2017 14:00:00 - 23.03.2017 14:00:00 (GMT)Coleshill, United Kingdom (3535): wind speed & gusts: 17.03.2017 14:00:00 - 23.03.2017 14:00:00 (GMT)Coleshill, United Kingdom (3535): wind direction: 17.03.2017 14:00:00 - 23.03.2017 14:00:00 (GMT)Coleshill, United Kingdom (3535): reduced air pressure: 17.03.2017 14:00:00 - 23.03.2017 14:00:00 (GMT)Coleshill, United Kingdom (3535): visibility: 17.03.2017 14:00:00 - 23.03.2017 14:00:00 (GMT)Coleshill, United Kingdom (3535): precipitation: 17.03.2017 14:00:00 - 23.03.2017 14:00:00 (GMT)
Date & Time tt [°C] td [°C] tt -20cm [°C] tt -100cm [°C] ff [km/h] ff [kn] fx [km/h] fx [kn] dd ppp [hPa] vv [km] rr [mm]
23.03.2017 14:00:00 - - - - - - - - - - - 0,0
23.03.2017 13:00:00 10,9 3,6 - - 24 13 - - NE 1017,8 - 0,0
23.03.2017 12:00:00 10,7 5,9 - - 22 12 - - NE 1017,7 18 0,0
23.03.2017 11:00:00 8,6 6,0 - - 21 11 - - NE 1017,6 10 0,0
23.03.2017 10:00:00 7,9 6,5 - - 21 11 - - NNE 1017,3 9 0,0
23.03.2017 09:00:00 6,6 6,1 7,7 8,5 16 9 - - NNE 1017,0 8 0,0
23.03.2017 08:00:00 5,2 5,2 - - 18 10 - - NNE 1016,1 6 0,0
23.03.2017 07:00:00 4,1 4,1 - - 11 6 - - N 1015,4 3,5 0,0
23.03.2017 06:00:00 3,4 3,4 - - 11 6 - - N 1014,8 1,6 2,0
23.03.2017 05:00:00 2,4 2,4 - - 8 4 - - NNW 1014,3 0,4 0,2
23.03.2017 04:00:00 1,6 1,6 - - 9 5 - - N 1013,6 0,4 0,0
23.03.2017 03:00:00 0,4 0,4 - - 9 5 - - N 1013,1 0,3 0,0
23.03.2017 02:00:00 0,1 0,1 - - 9 5 - - NNW 1012,8 0,2 0,0
23.03.2017 01:00:00 -0,6 -0,8 - - 8 4 - - N 1012,5 0,4 0,0
23.03.2017 00:00:00 0,4 0,3 - - 8 4 - - NNW 1012,2 7 0,0
22.03.2017 23:00:00 1,4 1,4 - - 0 0 - - N 1011,5 11 0,0
22.03.2017 22:00:00 1,8 1,7 - - 2 1 - - ESE 1010,8 17 0,0
22.03.2017 21:00:00 1,9 1,6 - - 0 0 - - N 1010,2 3,5 0,0
22.03.2017 20:00:00 2,7 2,2 - - 4 2 - - SE 1009,2 9 0,0
22.03.2017 19:00:00 3,7 3,0 - - 5 3 - - SSE 1008,2 20 0,0
22.03.2017 18:00:00 5,2 4,0 - - 4 2 - - S 1007,1 30 0,0
22.03.2017 17:00:00 5,4 4,8 - - 8 4 - - SW 1006,2 45 1,6
22.03.2017 16:00:00 5,1 4,2 - - 16 9 - - S 1005,3 2,8 2,2
22.03.2017 15:00:00 7,2 4,7 - - 13 7 - - SSW 1004,1 50 0,2
22.03.2017 14:00:00 6,0 5,7 - - 13 7 - - S 1003,5 19 1,2
22.03.2017 13:00:00 5,9 5,2 - - 8 4 - - S 1003,1 15 0,8
22.03.2017 12:00:00 5,3 5,1 - - 11 6 - - SSE 1002,8 14 5,6
22.03.2017 11:00:00 6,5 5,9 - - 11 6 - - SSE 1002,0 3,0 0,4
22.03.2017 10:00:00 5,6 4,9 - - 22 12 - - SE 1001,7 18 1,0
22.03.2017 09:00:00 5,3 4,4 8,7 8,7 24 13 46 25 SE 1001,5 2,4 2,0
22.03.2017 08:00:00 5,9 3,4 - - 24 13 - - SE 1001,1 16 0,0
22.03.2017 07:00:00 5,8 2,6 - - 26 14 - - SE 1001,2 30 0,0
22.03.2017 06:00:00 5,8 2,6 - - 26 14 - - SE 1001,1 30 0,0
22.03.2017 05:00:00 5,5 2,7 - - 22 12 - - SE 1001,5 35 0,0
22.03.2017 04:00:00 5,6 2,8 - - 21 11 - - SE 1001,9 35 0,0
22.03.2017 03:00:00 5,6 2,7 - - 18 10 - - SSE 1002,4 35 0,0
22.03.2017 02:00:00 5,6 2,8 - - 18 10 - - SSE 1003,0 35 0,0
22.03.2017 01:00:00 5,2 2,9 - - 18 10 - - SSE 1004,0 35 0,0
22.03.2017 00:00:00 5,1 3,1 - - 15 8 - - SSE 1004,8 40 0,0
21.03.2017 23:00:00 4,8 3,1 - - 13 7 - - SSE 1005,6 45 0,0
21.03.2017 22:00:00 4,8 2,9 - - 15 8 - - SSE 1006,1 45 0,0
21.03.2017 21:00:00 4,3 3,0 - - 8 4 - - SSE 1006,9 50 0,0
21.03.2017 20:00:00 4,6 3,0 - - 8 4 - - S 1007,6 30 0,2
21.03.2017 19:00:00 5,1 2,5 - - 15 8 - - S 1007,7 50 0,0
21.03.2017 18:00:00 5,4 2,2 - - 11 6 - - WSW 1007,5 50 0,0
21.03.2017 17:00:00 7,7 0,8 - - 11 6 - - SSW 1006,8 50 0,0
21.03.2017 16:00:00 7,3 1,5 - - 13 7 - - WSW 1007,3 18 0,0
21.03.2017 15:00:00 8,3 1,3 - - 18 10 - - SW 1007,5 50 0,0
21.03.2017 14:00:00 9,3 -2,2 - - 24 13 54 29 SW 1007,5 50 0,0
21.03.2017 13:00:00 8,1 -3,1 - - 22 12 52 28 WSW 1007,7 50 0,0
21.03.2017 12:00:00 9,2 -0,4 - - 22 12 48 26 WSW 1007,8 50 0,0
21.03.2017 11:00:00 8,0 0,2 - - 22 12 55 30 WSW 1007,5 50 0,0
21.03.2017 10:00:00 7,0 -1,2 - - 16 9 - - WSW 1007,5 50 0,0
21.03.2017 09:00:00 5,6 0,3 9,0 8,5 16 9 - - WSW 1007,3 50 0,0
21.03.2017 08:00:00 4,1 0,0 - - 15 8 - - SW 1007,1 45 0,0
21.03.2017 07:00:00 2,5 -0,5 - - 11 6 - - SW 1006,7 40 0,0
21.03.2017 06:00:00 2,4 -0,9 - - 11 6 - - WSW 1006,3 45 0,0
21.03.2017 05:00:00 2,5 -0,8 - - 9 5 - - WSW 1005,8 50 0,0
21.03.2017 04:00:00 2,9 -0,1 - - 9 5 - - SW 1005,2 45 0,0
21.03.2017 03:00:00 4,1 0,4 - - 18 10 46 25 WSW 1004,8 50 0,0
21.03.2017 02:00:00 4,6 1,0 - - 18 10 - - WSW 1004,3 50 0,0
21.03.2017 01:00:00 5,1 2,7 - - 13 7 - - WSW 1003,5 45 0,0
21.03.2017 00:00:00 4,6 3,6 - - 11 6 - - SSW 1003,4 35 0,2
20.03.2017 23:00:00 5,1 4,3 - - 11 6 - - SW 1003,5 7 1,0
20.03.2017 22:00:00 5,1 4,0 - - 8 4 - - SW 1003,2 15 0,4
20.03.2017 21:00:00 7,2 3,5 - - 11 6 - - SW 1002,9 50 0,0
20.03.2017 20:00:00 6,8 2,0 - - 8 4 - - SW 1002,7 50 0,0
20.03.2017 19:00:00 7,6 1,4 - - 9 5 - - SW 1002,2 50 0,0
20.03.2017 18:00:00 9,2 3,3 - - 11 6 - - WSW 1001,6 50 0,0
20.03.2017 17:00:00 10,2 3,9 - - 16 9 - - WSW 1001,2 50 0,0
20.03.2017 16:00:00 10,2 4,1 - - 18 10 - - WSW 1000,9 50 0,0
20.03.2017 15:00:00 9,6 6,3 - - 18 10 - - WSW 1000,6 50 0,0
20.03.2017 14:00:00 8,4 7,0 - - 18 10 - - W 1000,7 28 1,0
20.03.2017 13:00:00 8,6 7,4 - - 18 10 - - W 1000,2 7 1,6
20.03.2017 12:00:00 8,9 7,5 - - 21 11 - - W 999,7 7 2,6
20.03.2017 11:00:00 9,0 6,9 - - 26 14 - - W 999,3 2,1 1,4
20.03.2017 10:00:00 11,3 10,1 - - 26 14 46 25 SSW 998,8 30 0,2
20.03.2017 09:00:00 10,8 9,9 9,5 8,4 26 14 - - SSW 999,4 16 0,4
20.03.2017 08:00:00 10,5 9,5 - - 22 12 - - S 1000,0 50 0,2
20.03.2017 07:00:00 10,0 9,7 - - 16 9 - - SSW 1001,1 11 0,0
20.03.2017 06:00:00 10,1 9,5 - - 16 9 - - SSW 1001,9 30 0,0
20.03.2017 05:00:00 10,0 9,5 - - 15 8 - - SSW 1002,5 3,3 0,2
20.03.2017 04:00:00 10,3 9,2 - - 16 9 - - SSW 1002,7 28 0,2
20.03.2017 03:00:00 10,5 9,1 - - 16 9 - - SSW 1003,1 50 0,0
20.03.2017 02:00:00 10,6 8,7 - - 15 8 - - S 1003,4 50 0,0
20.03.2017 01:00:00 10,9 8,9 - - 15 8 - - SSW 1004,7 50 0,0
20.03.2017 00:00:00 10,8 9,0 - - 16 9 - - SSW 1005,2 50 0,0
19.03.2017 23:00:00 11,3 8,6 - - 13 7 - - SW 1005,2 50 0,0
19.03.2017 22:00:00 11,6 8,8 - - 16 9 - - SW 1005,3 50 0,0
19.03.2017 21:00:00 11,7 9,0 - - 13 7 - - SW 1005,4 50 0,0
19.03.2017 20:00:00 11,9 9,3 - - 16 9 - - SW 1005,3 50 0,0
19.03.2017 19:00:00 11,8 9,4 - - 16 9 - - SW 1005,3 50 0,0
19.03.2017 18:00:00 12,1 9,4 - - 13 7 - - SW 1004,8 50 0,0
19.03.2017 17:00:00 13,1 9,5 - - 18 10 - - WSW 1004,5 50 0,0
19.03.2017 16:00:00 13,7 9,7 - - 21 11 - - WSW 1004,6 50 0,0
19.03.2017 15:00:00 13,1 9,7 - - 22 12 - - SW 1004,8 45 0,0
19.03.2017 14:00:00 14,0 8,5 - - 22 12 55 30 SW 1004,5 35 0,0
19.03.2017 13:00:00 13,9 8,1 - - 22 12 50 27 WSW 1005,1 45 0,0
19.03.2017 12:00:00 13,3 8,7 - - 22 12 57 31 SW 1005,3 50 0,0
19.03.2017 11:00:00 12,9 8,6 - - 24 13 46 25 WSW 1005,7 50 0,0
19.03.2017 10:00:00 13,0 9,0 - - 21 11 - - SW 1005,5 50 0,0
19.03.2017 09:00:00 11,4 8,5 9,0 8,2 21 11 46 25 SW 1006,0 50 0,0
19.03.2017 08:00:00 11,4 8,6 - - 16 9 - - SW 1006,1 50 0,0
19.03.2017 07:00:00 10,7 7,9 - - 22 12 - - WSW 1006,5 50 0,0
19.03.2017 06:00:00 10,9 7,6 - - 18 10 48 26 WSW 1006,1 45 0,0
19.03.2017 05:00:00 11,1 8,1 - - 21 11 - - SW 1006,6 50 0,0
19.03.2017 04:00:00 10,9 8,6 - - 18 10 - - SW 1007,0 50 0,0
19.03.2017 03:00:00 11,3 9,1 - - 15 8 - - SW 1007,4 40 0,0
19.03.2017 02:00:00 11,0 9,5 - - 15 8 - - SSW 1008,1 40 0,0
19.03.2017 01:00:00 11,6 9,7 - - 15 8 - - SW 1008,6 40 0,0
19.03.2017 00:00:00 12,1 9,9 - - 16 9 - - SW 1008,8 45 0,0
18.03.2017 23:00:00 12,6 10,2 - - 16 9 - - SSW 1008,9 40 0,0
18.03.2017 22:00:00 13,0 10,1 - - 9 5 - - WSW 1009,3 50 0,0
18.03.2017 21:00:00 13,0 9,8 - - 13 7 - - WSW 1009,7 50 0,0
18.03.2017 20:00:00 12,9 9,8 - - 9 5 - - WSW 1009,8 50 0,0
18.03.2017 19:00:00 12,9 9,6 - - 9 5 - - WSW 1009,6 50 0,0
18.03.2017 18:00:00 13,1 9,6 - - 16 9 - - W 1009,0 50 0,0
18.03.2017 17:00:00 12,9 9,8 - - 16 9 - - W 1008,8 35 0,0
18.03.2017 16:00:00 13,3 9,4 - - 21 11 - - W 1009,1 50 0,0
18.03.2017 15:00:00 12,7 9,7 - - 26 14 - - W 1009,1 19 0,0
18.03.2017 14:00:00 13,4 9,6 - - 22 12 - - W 1009,1 50 0,0
18.03.2017 13:00:00 14,0 9,3 - - 26 14 - - W 1009,4 50 0,0
18.03.2017 12:00:00 13,8 9,1 - - 22 12 - - WSW 1009,2 50 0,0
18.03.2017 11:00:00 13,4 9,3 - - 21 11 - - W 1009,1 50 0,0
18.03.2017 10:00:00 13,1 9,2 - - 18 10 - - W 1008,5 50 0,0
18.03.2017 09:00:00 12,6 9,0 8,4 8,2 18 10 - - W 1008,3 50 0,0
18.03.2017 08:00:00 12,2 8,8 - - 18 10 - - W 1008,4 50 0,0
18.03.2017 07:00:00 12,0 8,5 - - 18 10 - - W 1007,8 50 0,0
18.03.2017 06:00:00 12,0 8,5 - - 21 11 - - W 1007,2 50 0,0
18.03.2017 05:00:00 12,0 8,6 - - 21 11 - - W 1006,5 50 0,0
18.03.2017 04:00:00 12,0 8,7 - - 21 11 - - W 1005,9 50 0,0
18.03.2017 03:00:00 12,2 8,7 - - 22 12 - - W 1005,4 50 0,0
18.03.2017 02:00:00 12,1 8,8 - - 24 13 - - W 1005,4 50 0,0
18.03.2017 01:00:00 12,0 8,6 - - 26 14 54 29 W 1005,1 50 0,0
18.03.2017 00:00:00 11,8 8,7 - - 21 11 - - W 1005,2 50 0,0
17.03.2017 23:00:00 10,8 8,3 - - 21 11 - - WSW 1005,5 50 0,0
17.03.2017 22:00:00 9,9 7,8 - - 16 9 46 25 SW 1006,1 50 0,0
17.03.2017 21:00:00 9,8 7,0 - - 24 13 52 28 SW 1006,0 50 0,0
17.03.2017 20:00:00 9,1 6,6 - - 21 11 54 29 SW 1007,2 50 0,2
17.03.2017 19:00:00 8,7 6,2 - - 26 14 52 28 SW 1008,0 50 0,2
17.03.2017 18:00:00 8,5 5,9 - - 22 12 46 25 SW 1009,5 22 0,2
17.03.2017 17:00:00 9,0 5,1 - - 24 13 59 32 SW 1011,2 40 0,0
17.03.2017 16:00:00 9,5 4,8 - - 22 12 48 26 SW 1012,2 45 0,0
17.03.2017 15:00:00 9,6 4,1 - - 21 11 - - SW 1013,6 50 0,0
17.03.2017 14:00:00 9,1 3,9 - - 18 10 - - SW 1015,1 50 0,0

tt = temperature
td = dewpoint
tt -20cm = temperature -20cm
tt -100cm = temperature -100cm
ff = wind speed
fx = gusts
dd = wind direction
ppp = reduced air pressure
vv = visibility
rr = precipitation

Next stations